Location: *
(14.6408°N, 3.2261°W)
Time: 04:02:34
(UTC+00:00)

Daily predictions for brighter satellites

Satellite Brightness Start Highest point End
(mag) Time Altitude Azimuth Time Altitude Azimuth Time Altitude Azimuth
Centaur D-1AR AC-36 3.5 03:31:48 40° NNE 03:31:48 40° NNE 03:41:46 10° E
USA 215 4.2 03:41:39 10° NNE 03:45:41 36° N 03:45:41 36° N
MSX 4.1 03:50:16 10° NNE 03:55:55 63° ESE 03:56:50 55° SE
IDEFIX/ARIANE 42P 4.3 03:54:26 10° N 03:56:19 23° N 03:56:19 23° N
Ariane H10 4.1 04:13:31 14° SE 04:13:31 14° SE 04:14:06 10° SE
Meteor 1-27 Rocket 3.6 04:13:34 74° W 04:13:40 74° W 04:19:32 10° N
Atlas Centaur 2 4.3 04:15:22 17° NNW 04:19:11 26° NNE 04:25:39 10° ENE
Cosmos 1461 4.3 04:17:07 12° N 04:20:42 38° ENE 04:24:44 10° SE
Cosmos 1703 Rocket 3.8 04:23:54 18° S 04:27:06 71° E 04:31:31 10° N
CZ-4B R/B 3.7 04:27:13 10° NNE 04:30:50 72° ESE 04:31:24 58° SSE
ATLAS 3B CENTAUR R/B 3.2 04:39:55 32° WSW 04:41:51 37° SW 04:46:16 10° SSE
Meteor 1-11 Rocket 3.7 04:39:22 10° N 04:44:54 85° E 04:50:25 10° S
GPS 2-15 Rocket1 3.9 04:45:13 33° SW 04:46:09 36° SSW 04:50:41 10° SE
Cosmos 1553 Rocket 4.0 04:40:22 10° N 04:46:32 82° E 04:52:36 10° S
CZ-2C R/B 2.5 04:42:36 10° N 04:47:30 56° WNW 04:52:32 10° SSW
Hubble Space Telescope 3.3 04:45:35 10° NNW 04:47:39 13° N 04:49:42 10° NE
Ariane H10-3 4.3 04:50:40 10° S 04:53:22 14° SSE 04:58:04 10° ESE
Dummy Sat-01 4.5 04:51:59 10° N 04:55:44 77° W 04:59:28 10° S
Okean 1-7 3.1 04:52:14 10° SSW 04:56:32 56° W 05:00:50 10° N
FUSE 4.2 04:54:20 29° W 04:56:53 57° NNW 05:02:06 10° ENE
Okean 1 3.7 04:53:55 10° S 04:57:50 63° E 05:01:44 10° NNE
Lacrosse 5 rocket 3.2 04:54:52 10° N 04:58:57 35° ENE 05:03:09 10° ESE
GPS 2-12 Rocket1 4.3 04:57:22 18° SW 05:00:26 36° SSE 05:04:47 10° E
Cosmos 1655 Rocket 4.4 04:55:06 10° SSW 05:00:47 38° W 05:06:30 10° NNW
Ariane H10+ 2.7 04:59:24 20° SW 05:01:35 28° SSW 05:04:13 10° SE
Timation 2 Rocket 4.5 04:55:58 10° N 05:01:50 59° ENE 05:07:46 10° SSE
Cosmos 1417 Rocket 4.5 04:56:35 10° N 05:02:53 72° W 05:09:13 10° S
Cosmos 1656 3.7 05:02:48 10° SSW 05:08:28 86° ESE 05:14:10 10° NNE
Meteor 1-18 Rocket 4.2 05:04:05 10° S 05:09:37 87° E 05:15:13 10° N
PSLV R/B 3.9 05:06:19 10° N 05:10:06 50° WNW 05:13:49 10° SSW
Helios 1A Rocket 3.0 05:07:15 10° NNE 05:11:20 81° ESE 05:15:27 10° S
ISS -2.5 05:11:44 22° WSW 05:12:15 23° SW 05:14:58 10° S
Star 37E S/N 40062 2.2 05:11:34 31° W 05:12:21 62° SSW 05:14:09 10° SE
Meteor 1-31 Rocket 4.0 05:11:13 10° NNW 05:14:15 22° WNW 05:15:58 17° WSW
Centaur D-1AR AC-39 1.5 05:14:43 16° WSW 05:17:57 85° SSE 05:21:41 10° ENE
SJ-12 3.9 05:14:45 10° NNE 05:18:48 89° E 05:22:51 10° SSW
Meteor PRIRODA 4.4 05:16:06 10° NNW 05:19:21 30° WNW 05:22:37 10° SW
Cosmos 1666 2.8 05:16:21 10° N 05:20:07 80° E 05:23:55 10° S
COSMOS 2487 4.1 05:23:20 14° W 05:23:28 15° W 05:25:26 10° SW
Cosmos 1536 3.4 05:21:41 10° NNW 05:25:18 34° W 05:28:55 10° SSW
Cosmos 1908 Rocket 3.8 05:21:22 10° NNW 05:25:28 44° W 05:29:38 10° SSW
Cosmos 1340 3.2 05:22:29 10° NNW 05:25:57 36° W 05:29:25 10° SSW
Palapa 6 Rocket 2.9 05:22:31 11° WNW 05:26:10 74° NNE 05:30:40 10° ESE
GPS 2-04 Rocket1 2.9 05:22:15 10° NW 05:26:22 75° NE 05:30:18 10° ESE
Abrixas rocket 3.7 05:26:23 13° W 05:27:54 18° NW 05:30:03 10° N
S3M 4.1 05:21:59 10° NNW 05:28:01 53° W 05:34:08 10° SSW
Cosmos 2112 Rocket 4.4 05:23:33 10° SSW 05:28:33 43° WNW 05:33:32 10° N
Cosmos 1346 Rocket 3.5 05:25:23 10° NNW 05:29:02 32° W 05:32:39 10° SSW
CZ-4B R/B 3.2 05:26:53 10° NNE 05:32:18 87° WNW 05:37:39 10° SSW
Delta 128 3.7 05:28:04 10° WSW 05:32:42 75° SSE 05:37:09 10° ENE
Okean O Rocket 1.6 05:32:46 10° N 05:37:11 65° WNW 05:41:34 10° SSW
Cosmos 1697 Rocket 2.8 05:33:39 10° SSW 05:39:17 90° WNW 05:44:56 10° NNE
Cosmos 1484 Rocket 3.6 05:38:44 10° NNW 05:41:52 26° WNW 05:44:59 10° SW
Meteor 2-19 Rocket 4.5 05:36:25 10° S 05:42:34 81° W 05:48:43 10° N
